Location: Mohawk View
(42.7837°N, 73.7885°W)
Time: 11:47:48
(UTC+00:00)

Cosmos 1515 Rocket - Pass Details

Date: 17 June 2021
Orbit: 607 x 629 km, 82.5° (Epoch: 26 July)

Event Time Altitude Azimuth Distance (km) Brightness Sun altitude
Rises 08:34:32 0° 351° (N) 2,904 7.5 -6.9°
Reaches altitude 10° 08:36:46 10° 351° (N) 1,997 6.6 -6.6°
Maximum altitude 08:41:11 84° 266° (W) 632 3.6 -6.0°
Drops below altitude 10° 08:45:37 10° 176° (S) 1,993 5.8 -5.4°
Sets 08:47:50 0° 175° (S) 2,898 6.7 -5.1°
